Time,TemperatureF,DewpointF,PressureIn,WindDirection,WindDirectionDegrees,WindSpeedMPH,WindSpeedGustMPH,Humidity,HourlyPrecipIn,Conditions,Clouds,dailyrainin,SoftwareType,DateUTC
2013-10-07 00:02:00,57.3,44.8,30.08,SW,223,3.0,7.0,63,0.00,,,0.00,Weather View 32 v70,2013-10-07 05:02:00,
2013-10-07 00:07:00,56.8,44.7,30.08,SW,223,1.0,7.0,64,0.00,,,0.00,Weather View 32 v70,2013-10-07 05:07:00,
2013-10-07 00:12:00,56.6,44.5,30.08,SW,223,0.0,7.0,64,0.00,,,0.00,Weather View 32 v70,2013-10-07 05:12:00,
2013-10-07 00:17:00,56.4,44.3,30.08,SW,223,0.0,7.0,64,0.00,,,0.00,Weather View 32 v70,2013-10-07 05:17:00,
2013-10-07 00:22:00,56.1,44.5,30.08,SW,223,0.0,7.0,65,0.00,,,0.00,Weather View 32 v70,2013-10-07 05:22:00,
2013-10-07 00:27:00,55.9,44.7,30.08,SW,223,0.0,7.0,66,0.00,,,0.00,Weather View 32 v70,2013-10-07 05:27:00,
2013-10-07 00:32:00,55.8,44.6,30.08,SW,223,0.0,7.0,66,0.00,,,0.00,Weather View 32 v70,2013-10-07 05:32:00,
2013-10-07 00:37:00,55.8,44.6,30.08,SW,223,1.0,7.0,66,0.00,,,0.00,Weather View 32 v70,2013-10-07 05:37:00,
2013-10-07 00:42:00,55.9,44.3,30.08,SW,223,0.0,7.0,65,0.00,,,0.00,Weather View 32 v70,2013-10-07 05:42:00,
2013-10-07 00:47:00,56.0,43.6,30.08,SW,223,2.0,7.0,63,0.00,,,0.00,Weather View 32 v70,2013-10-07 05:47:00,
2013-10-07 00:52:00,56.3,43.4,30.08,SW,223,2.0,7.0,62,0.00,,,0.00,Weather View 32 v70,2013-10-07 05:52:00,
2013-10-07 00:57:00,56.3,43.0,30.08,SW,223,1.0,5.0,61,0.00,,,0.00,Weather View 32 v70,2013-10-07 05:57:00,
2013-10-07 01:02:00,56.2,42.9,30.08,SW,223,3.0,4.0,61,0.00,,,0.00,Weather View 32 v70,2013-10-07 06:02:00,
2013-10-07 01:07:00,55.9,42.6,30.08,SW,223,1.0,4.0,61,0.00,,,0.00,Weather View 32 v70,2013-10-07 06:07:00,
2013-10-07 01:12:00,55.7,42.9,30.09,SW,223,0.0,4.0,62,0.00,,,0.00,Weather View 32 v70,2013-10-07 06:12:00,
2013-10-07 01:17:00,55.5,42.7,30.09,SW,223,0.0,4.0,62,0.00,,,0.00,Weather View 32 v70,2013-10-07 06:17:00,
2013-10-07 01:22:00,55.2,42.8,30.09,SW,223,0.0,4.0,63,0.00,,,0.00,Weather View 32 v70,2013-10-07 06:22:00,
2013-10-07 01:27:00,54.9,42.9,30.09,SW,223,0.0,4.0,64,0.00,,,0.00,Weather View 32 v70,2013-10-07 06:27:00,
2013-10-07 01:32:00,54.9,44.1,30.10,SW,223,1.0,4.0,67,0.00,,,0.00,Weather View 32 v70,2013-10-07 06:32:00,
2013-10-07 01:37:00,54.4,44.4,30.10,SW,223,0.0,4.0,69,0.00,,,0.00,Weather View 32 v70,2013-10-07 06:37:00,
2013-10-07 01:42:00,53.9,44.7,30.10,SW,223,1.0,4.0,71,0.00,,,0.00,Weather View 32 v70,2013-10-07 06:42:00,
2013-10-07 01:47:00,53.6,44.0,30.10,SW,223,0.0,4.0,70,0.00,,,0.00,Weather View 32 v70,2013-10-07 06:47:00,
2013-10-07 01:52:00,53.6,43.7,30.10,SW,223,0.0,4.0,69,0.00,,,0.00,Weather View 32 v70,2013-10-07 06:52:00,
2013-10-07 01:57:00,53.7,43.8,30.10,SW,223,3.0,4.0,69,0.00,,,0.00,Weather View 32 v70,2013-10-07 06:57:00,
2013-10-07 02:02:00,54.0,43.3,30.10,SW,223,2.0,4.0,67,0.00,,,0.00,Weather View 32 v70,2013-10-07 07:02:00,
2013-10-07 02:07:00,54.3,43.6,30.10,SW,223,0.0,3.0,67,0.00,,,0.00,Weather View 32 v70,2013-10-07 07:07:00,
2013-10-07 02:12:00,54.4,43.6,30.11,SW,223,0.0,3.0,67,0.00,,,0.00,Weather View 32 v70,2013-10-07 07:12:00,
2013-10-07 02:17:00,54.4,43.6,30.10,SW,223,0.0,3.0,67,0.00,,,0.00,Weather View 32 v70,2013-10-07 07:17:00,
2013-10-07 02:22:00,54.3,43.9,30.10,SW,223,2.0,3.0,68,0.00,,,0.00,Weather View 32 v70,2013-10-07 07:22:00,
2013-10-07 02:27:00,54.2,43.5,30.10,SW,223,2.0,3.0,67,0.00,,,0.00,Weather View 32 v70,2013-10-07 07:27:00,
2013-10-07 02:32:00,54.1,43.4,30.11,SW,223,0.0,3.0,67,0.00,,,0.00,Weather View 32 v70,2013-10-07 07:32:00,
2013-10-07 02:37:00,54.1,43.4,30.11,SW,223,0.0,3.0,67,0.00,,,0.00,Weather View 32 v70,2013-10-07 07:37:00,
2013-10-07 02:42:00,54.0,43.3,30.11,SW,223,0.0,3.0,67,0.00,,,0.00,Weather View 32 v70,2013-10-07 07:42:00,
2013-10-07 02:47:00,53.9,43.2,30.11,SW,223,0.0,3.0,67,0.00,,,0.00,Weather View 32 v70,2013-10-07 07:47:00,
2013-10-07 02:52:00,53.7,43.4,30.11,SW,223,0.0,3.0,68,0.00,,,0.00,Weather View 32 v70,2013-10-07 07:52:00,
2013-10-07 02:57:00,53.6,42.9,30.11,SW,223,1.0,3.0,67,0.00,,,0.00,Weather View 32 v70,2013-10-07 07:57:00,
2013-10-07 03:02:00,53.7,42.6,30.11,SW,223,1.0,3.0,66,0.00,,,0.00,Weather View 32 v70,2013-10-07 08:02:00,
2013-10-07 03:07:00,53.8,42.7,30.11,SW,223,0.0,3.0,66,0.00,,,0.00,Weather View 32 v70,2013-10-07 08:07:00,
2013-10-07 03:12:00,53.7,42.2,30.11,SW,223,0.0,3.0,65,0.00,,,0.00,Weather View 32 v70,2013-10-07 08:12:00,
2013-10-07 03:17:00,53.6,42.5,30.11,SW,223,0.0,3.0,66,0.00,,,0.00,Weather View 32 v70,2013-10-07 08:17:00,
2013-10-07 03:22:00,53.4,42.3,30.12,SW,223,1.0,3.0,66,0.00,,,0.00,Weather View 32 v70,2013-10-07 08:22:00,
2013-10-07 03:27:00,53.6,42.1,30.12,SW,223,2.0,3.0,65,0.00,,,0.00,Weather View 32 v70,2013-10-07 08:27:00,
2013-10-07 03:32:00,53.7,42.2,30.12,SW,223,2.0,5.0,65,0.00,,,0.00,Weather View 32 v70,2013-10-07 08:32:00,
2013-10-07 03:37:00,53.6,42.5,30.12,SW,223,0.0,5.0,66,0.00,,,0.00,Weather View 32 v70,2013-10-07 08:37:00,
2013-10-07 03:42:00,53.4,42.7,30.12,SW,223,1.0,5.0,67,0.00,,,0.00,Weather View 32 v70,2013-10-07 08:42:00,
2013-10-07 03:47:00,53.2,42.5,30.12,SW,223,2.0,5.0,67,0.00,,,0.00,Weather View 32 v70,2013-10-07 08:47:00,
2013-10-07 03:52:00,53.1,42.8,30.12,SW,223,2.0,5.0,68,0.00,,,0.00,Weather View 32 v70,2013-10-07 08:52:00,
2013-10-07 03:57:00,53.1,42.4,30.12,SW,223,1.0,5.0,67,0.00,,,0.00,Weather View 32 v70,2013-10-07 08:57:00,
2013-10-07 04:02:00,53.0,42.3,30.12,SW,223,1.0,5.0,67,0.00,,,0.00,Weather View 32 v70,2013-10-07 09:02:00,
2013-10-07 04:07:00,53.0,42.3,30.12,SW,223,2.0,5.0,67,0.00,,,0.00,Weather View 32 v70,2013-10-07 09:07:00,
2013-10-07 04:12:00,53.0,42.7,30.12,SW,223,0.0,5.0,68,0.00,,,0.00,Weather View 32 v70,2013-10-07 09:12:00,
2013-10-07 04:17:00,52.8,42.5,30.12,SW,223,0.0,5.0,68,0.00,,,0.00,Weather View 32 v70,2013-10-07 09:17:00,
2013-10-07 04:22:00,52.6,42.3,30.13,SW,223,1.0,5.0,68,0.00,,,0.00,Weather View 32 v70,2013-10-07 09:22:00,
2013-10-07 04:27:00,52.5,42.2,30.12,SW,223,0.0,5.0,68,0.00,,,0.00,Weather View 32 v70,2013-10-07 09:27:00,
2013-10-07 04:32:00,52.4,42.5,30.13,SW,223,1.0,3.0,69,0.00,,,0.00,Weather View 32 v70,2013-10-07 09:32:00,
2013-10-07 04:37:00,52.3,42.4,30.13,SW,223,0.0,3.0,69,0.00,,,0.00,Weather View 32 v70,2013-10-07 09:37:00,
2013-10-07 04:42:00,52.2,42.3,30.13,SW,223,0.0,3.0,69,0.00,,,0.00,Weather View 32 v70,2013-10-07 09:42:00,
2013-10-07 04:47:00,52.1,41.8,30.13,SW,223,0.0,3.0,68,0.00,,,0.00,Weather View 32 v70,2013-10-07 09:47:00,
2013-10-07 04:52:00,52.1,41.8,30.13,SW,223,0.0,3.0,68,0.00,,,0.00,Weather View 32 v70,2013-10-07 09:52:00,
2013-10-07 04:57:00,52.1,42.2,30.13,SW,223,0.0,3.0,69,0.00,,,0.00,Weather View 32 v70,2013-10-07 09:57:00,
2013-10-07 05:02:00,52.0,41.7,30.13,SW,223,0.0,3.0,68,0.00,,,0.00,Weather View 32 v70,2013-10-07 10:02:00,
2013-10-07 05:07:00,51.9,41.7,30.14,SW,223,0.0,3.0,68,0.00,,,0.00,Weather View 32 v70,2013-10-07 10:07:00,
2013-10-07 05:12:00,51.9,41.7,30.14,SW,223,1.0,3.0,68,0.00,,,0.00,Weather View 32 v70,2013-10-07 10:12:00,
2013-10-07 05:17:00,51.8,41.2,30.14,SW,223,0.0,3.0,67,0.00,,,0.00,Weather View 32 v70,2013-10-07 10:17:00,
2013-10-07 05:22:00,51.7,41.1,30.14,SW,223,1.0,3.0,67,0.00,,,0.00,Weather View 32 v70,2013-10-07 10:22:00,
2013-10-07 05:27:00,51.7,41.1,30.14,SW,223,0.0,3.0,67,0.00,,,0.00,Weather View 32 v70,2013-10-07 10:27:00,
2013-10-07 05:32:00,51.7,40.7,30.14,SW,223,0.0,3.0,66,0.00,,,0.00,Weather View 32 v70,2013-10-07 10:32:00,
2013-10-07 05:37:00,51.6,41.0,30.14,SW,223,0.0,3.0,67,0.00,,,0.00,Weather View 32 v70,2013-10-07 10:37:00,
2013-10-07 05:42:00,51.5,40.9,30.14,SW,223,2.0,3.0,67,0.00,,,0.00,Weather View 32 v70,2013-10-07 10:42:00,
2013-10-07 05:47:00,51.3,41.1,30.15,SW,223,2.0,4.0,68,0.00,,,0.00,Weather View 32 v70,2013-10-07 10:47:00,
2013-10-07 05:52:00,51.1,41.3,30.15,SW,223,0.0,4.0,69,0.00,,,0.00,Weather View 32 v70,2013-10-07 10:52:00,
2013-10-07 05:57:00,51.0,41.5,30.15,SW,223,3.0,4.0,70,0.00,,,0.00,Weather View 32 v70,2013-10-07 10:57:00,
2013-10-07 06:02:00,51.0,41.9,30.15,SW,223,0.0,4.0,71,0.00,,,0.00,Weather View 32 v70,2013-10-07 11:02:00,
2013-10-07 06:07:00,51.0,41.5,30.16,SW,223,4.0,4.0,70,0.00,,,0.00,Weather View 32 v70,2013-10-07 11:07:00,
2013-10-07 06:12:00,51.1,41.3,30.16,SW,223,1.0,4.0,69,0.00,,,0.00,Weather View 32 v70,2013-10-07 11:12:00,
2013-10-07 06:17:00,51.2,41.4,30.16,SW,223,2.0,4.0,69,0.00,,,0.00,Weather View 32 v70,2013-10-07 11:17:00,
2013-10-07 06:22:00,51.3,41.8,30.16,SW,223,0.0,4.0,70,0.00,,,0.00,Weather View 32 v70,2013-10-07 11:22:00,
2013-10-07 06:27:00,51.3,41.5,30.16,SW,223,1.0,4.0,69,0.00,,,0.00,Weather View 32 v70,2013-10-07 11:27:00,
2013-10-07 06:32:00,51.3,41.1,30.15,SW,223,1.0,4.0,68,0.00,,,0.00,Weather View 32 v70,2013-10-07 11:32:00,
2013-10-07 06:37:00,51.3,41.1,30.16,SW,223,0.0,4.0,68,0.00,,,0.00,Weather View 32 v70,2013-10-07 11:37:00,
2013-10-07 06:42:00,51.3,41.1,30.16,SW,223,0.0,4.0,68,0.00,,,0.00,Weather View 32 v70,2013-10-07 11:42:00,
2013-10-07 06:47:00,51.3,41.1,30.16,SW,223,0.0,4.0,68,0.00,,,0.00,Weather View 32 v70,2013-10-07 11:47:00,
2013-10-07 06:52:00,51.4,41.2,30.16,SW,223,3.0,4.0,68,0.00,,,0.00,Weather View 32 v70,2013-10-07 11:52:00,
2013-10-07 06:57:00,51.5,40.9,30.16,SW,223,3.0,4.0,67,0.00,,,0.00,Weather View 32 v70,2013-10-07 11:57:00,
2013-10-07 07:02:00,51.5,40.5,30.16,SW,224,2.0,4.0,66,0.00,,,0.00,Weather View 32 v70,2013-10-07 12:02:00,
2013-10-07 07:07:00,51.5,40.9,30.17,SW,223,2.0,4.0,67,0.00,,,0.00,Weather View 32 v70,2013-10-07 12:07:00,
2013-10-07 07:12:00,51.4,40.8,30.17,SW,223,2.0,4.0,67,0.00,,,0.00,Weather View 32 v70,2013-10-07 12:12:00,
2013-10-07 07:17:00,51.3,41.1,30.17,SW,223,3.0,4.0,68,0.00,,,0.00,Weather View 32 v70,2013-10-07 12:17:00,
2013-10-07 07:22:00,51.2,41.0,30.17,SW,223,2.0,4.0,68,0.00,,,0.00,Weather View 32 v70,2013-10-07 12:22:00,
2013-10-07 07:27:00,51.1,40.9,30.17,SW,224,2.0,4.0,68,0.00,,,0.00,Weather View 32 v70,2013-10-07 12:27:00,
2013-10-07 07:32:00,51.1,40.9,30.17,SW,223,0.0,4.0,68,0.00,,,0.00,Weather View 32 v70,2013-10-07 12:32:00,
2013-10-07 07:37:00,51.1,40.9,30.17,SW,224,0.0,4.0,68,0.00,,,0.00,Weather View 32 v70,2013-10-07 12:37:00,
2013-10-07 07:42:00,51.3,41.1,30.17,SW,224,0.0,4.0,68,0.00,,,0.00,Weather View 32 v70,2013-10-07 12:42:00,
2013-10-07 07:47:00,51.4,41.2,30.17,SW,223,0.0,4.0,68,0.00,,,0.00,Weather View 32 v70,2013-10-07 12:47:00,
2013-10-07 07:52:00,51.5,40.5,30.17,SW,224,0.0,4.0,66,0.00,,,0.00,Weather View 32 v70,2013-10-07 12:52:00,
2013-10-07 07:57:00,51.7,40.7,30.18,SW,224,0.0,4.0,66,0.00,,,0.00,Weather View 32 v70,2013-10-07 12:57:00,
2013-10-07 08:02:00,51.9,40.5,30.18,SW,223,0.0,4.0,65,0.00,,,0.00,Weather View 32 v70,2013-10-07 13:02:00,
2013-10-07 08:07:00,52.2,40.8,30.18,SW,224,0.0,4.0,65,0.00,,,0.00,Weather View 32 v70,2013-10-07 13:07:00,
2013-10-07 08:12:00,52.5,40.2,30.18,SW,224,0.0,4.0,63,0.00,,,0.00,Weather View 32 v70,2013-10-07 13:12:00,
2013-10-07 08:17:00,52.9,40.2,30.18,SW,225,0.0,4.0,62,0.00,,,0.00,Weather View 32 v70,2013-10-07 13:17:00,
2013-10-07 08:22:00,53.1,40.4,30.19,SW,224,0.0,4.0,62,0.00,,,0.00,Weather View 32 v70,2013-10-07 13:22:00,
2013-10-07 08:27:00,53.4,40.7,30.19,SW,225,0.0,4.0,62,0.00,,,0.00,Weather View 32 v70,2013-10-07 13:27:00,
2013-10-07 08:32:00,53.6,40.5,30.19,SW,225,0.0,4.0,61,0.00,,,0.00,Weather View 32 v70,2013-10-07 13:32:00,
2013-10-07 08:37:00,53.9,40.7,30.19,SW,225,0.0,4.0,61,0.00,,,0.00,Weather View 32 v70,2013-10-07 13:37:00,
2013-10-07 08:42:00,54.3,40.2,30.20,SW,225,0.0,4.0,59,0.00,,,0.00,Weather View 32 v70,2013-10-07 13:42:00,
2013-10-07 08:47:00,54.6,40.5,30.20,SW,225,0.0,4.0,59,0.00,,,0.00,Weather View 32 v70,2013-10-07 13:47:00,
2013-10-07 08:52:00,54.8,40.3,30.20,SW,227,0.0,4.0,58,0.00,,,0.00,Weather View 32 v70,2013-10-07 13:52:00,
2013-10-07 08:57:00,55.0,40.0,30.20,WSW,249,0.0,4.0,57,0.00,,,0.00,Weather View 32 v70,2013-10-07 13:57:00,
2013-10-07 09:02:00,55.2,39.7,30.20,WNW,295,3.0,4.0,56,0.00,,,0.00,Weather View 32 v70,2013-10-07 14:02:00,
2013-10-07 09:07:00,55.4,39.9,30.20,NW,309,0.0,5.0,56,0.00,,,0.00,Weather View 32 v70,2013-10-07 14:07:00,
2013-10-07 09:12:00,55.8,39.8,30.21,NW,309,0.0,5.0,55,0.00,,,0.00,Weather View 32 v70,2013-10-07 14:12:00,
2013-10-07 09:17:00,56.3,39.8,30.21,NW,317,1.0,5.0,54,0.00,,,0.00,Weather View 32 v70,2013-10-07 14:17:00,
2013-10-07 09:22:00,56.6,39.1,30.21,NW,325,0.0,7.0,52,0.00,,,0.00,Weather View 32 v70,2013-10-07 14:22:00,
2013-10-07 09:27:00,57.0,38.5,30.21,NNW,331,0.0,7.0,50,0.00,,,0.00,Weather View 32 v70,2013-10-07 14:27:00,
2013-10-07 09:32:00,57.3,38.3,30.21,NW,325,5.0,7.0,49,0.00,,,0.00,Weather View 32 v70,2013-10-07 14:32:00,
2013-10-07 09:37:00,58.0,38.9,30.21,NW,326,5.0,7.0,49,0.00,,,0.00,Weather View 32 v70,2013-10-07 14:37:00,
2013-10-07 09:42:00,58.8,38.6,30.21,NW,325,2.0,7.0,47,0.00,,,0.00,Weather View 32 v70,2013-10-07 14:42:00,
2013-10-07 09:47:00,58.6,38.9,30.21,NW,326,0.0,7.0,48,0.00,,,0.00,Weather View 32 v70,2013-10-07 14:47:00,
2013-10-07 09:52:00,58.7,39.0,30.21,NW,326,1.0,7.0,48,0.00,,,0.00,Weather View 32 v70,2013-10-07 14:52:00,
2013-10-07 09:57:00,59.0,38.8,30.21,NW,326,0.0,7.0,47,0.00,,,0.00,Weather View 32 v70,2013-10-07 14:57:00,
2013-10-07 10:02:00,60.2,39.3,30.21,NW,326,0.0,7.0,46,0.00,,,0.00,Weather View 32 v70,2013-10-07 15:02:00,
2013-10-07 10:07:00,61.3,39.2,30.21,NW,326,0.0,7.0,44,0.00,,,0.00,Weather View 32 v70,2013-10-07 15:07:00,
2013-10-07 10:12:00,61.0,38.9,30.22,NW,326,2.0,7.0,44,0.00,,,0.00,Weather View 32 v70,2013-10-07 15:12:00,
2013-10-07 10:17:00,60.6,38.5,30.22,NNW,328,0.0,7.0,44,0.00,,,0.00,Weather View 32 v70,2013-10-07 15:17:00,
2013-10-07 10:22:00,60.7,37.4,30.22,NNW,347,5.0,8.0,42,0.00,,,0.00,Weather View 32 v70,2013-10-07 15:22:00,
2013-10-07 10:27:00,61.1,39.0,30.22,NNW,347,0.0,8.0,44,0.00,,,0.00,Weather View 32 v70,2013-10-07 15:27:00,
2013-10-07 10:32:00,61.8,38.4,30.22,NNW,347,5.0,8.0,42,0.00,,,0.00,Weather View 32 v70,2013-10-07 15:32:00,
2013-10-07 10:37:00,61.8,38.4,30.22,North,349,5.0,8.0,42,0.00,,,0.00,Weather View 32 v70,2013-10-07 15:37:00,
2013-10-07 10:42:00,61.5,38.7,30.22,North,349,0.0,8.0,43,0.00,,,0.00,Weather View 32 v70,2013-10-07 15:42:00,
2013-10-07 10:47:00,61.7,38.3,30.22,North,349,0.0,8.0,42,0.00,,,0.00,Weather View 32 v70,2013-10-07 15:47:00,
2013-10-07 10:52:00,61.7,39.5,30.22,North,349,0.0,8.0,44,0.00,,,0.00,Weather View 32 v70,2013-10-07 15:52:00,
2013-10-07 10:57:00,62.0,39.2,30.22,NNW,348,0.0,8.0,43,0.00,,,0.00,Weather View 32 v70,2013-10-07 15:57:00,
2013-10-07 11:02:00,62.6,39.1,30.22,NNW,348,2.0,8.0,42,0.00,,,0.00,Weather View 32 v70,2013-10-07 16:02:00,
2013-10-07 11:07:00,63.4,39.9,30.22,NNW,348,0.0,8.0,42,0.00,,,0.00,Weather View 32 v70,2013-10-07 16:07:00,
2013-10-07 11:12:00,63.5,39.3,30.23,NNW,348,0.0,8.0,41,0.00,,,0.00,Weather View 32 v70,2013-10-07 16:12:00,
2013-10-07 11:17:00,63.4,38.6,30.22,NNW,332,5.0,8.0,40,0.00,,,0.00,Weather View 32 v70,2013-10-07 16:17:00,
2013-10-07 11:22:00,63.3,39.1,30.22,NNW,328,0.0,8.0,41,0.00,,,0.00,Weather View 32 v70,2013-10-07 16:22:00,
2013-10-07 11:27:00,63.5,38.7,30.22,NNW,328,0.0,7.0,40,0.00,,,0.00,Weather View 32 v70,2013-10-07 16:27:00,
2013-10-07 11:32:00,64.1,38.6,30.22,NNW,328,0.0,7.0,39,0.00,,,0.00,Weather View 32 v70,2013-10-07 16:32:00,
2013-10-07 11:37:00,65.9,38.8,30.22,NNW,329,2.0,7.0,37,0.00,,,0.00,Weather View 32 v70,2013-10-07 16:37:00,
2013-10-07 11:42:00,66.2,39.1,30.22,NNW,329,0.0,7.0,37,0.00,,,0.00,Weather View 32 v70,2013-10-07 16:42:00,
2013-10-07 11:47:00,65.7,38.7,30.22,NNW,328,0.0,7.0,37,0.00,,,0.00,Weather View 32 v70,2013-10-07 16:47:00,
2013-10-07 11:52:00,65.5,38.5,30.22,NW,318,0.0,7.0,37,0.00,,,0.00,Weather View 32 v70,2013-10-07 16:52:00,
2013-10-07 11:57:00,65.8,38.0,30.22,NW,317,0.0,7.0,36,0.00,,,0.00,Weather View 32 v70,2013-10-07 16:57:00,
2013-10-07 12:02:00,66.2,38.4,30.22,NW,319,1.0,7.0,36,0.00,,,0.00,Weather View 32 v70,2013-10-07 17:02:00,
2013-10-07 12:07:00,66.9,39.7,30.22,NW,320,1.0,8.0,37,0.00,,,0.00,Weather View 32 v70,2013-10-07 17:07:00,
2013-10-07 12:12:00,67.3,38.6,30.21,NW,320,0.0,8.0,35,0.00,,,0.00,Weather View 32 v70,2013-10-07 17:12:00,
2013-10-07 12:17:00,66.9,39.0,30.21,NW,320,4.0,8.0,36,0.00,,,0.00,Weather View 32 v70,2013-10-07 17:17:00,
2013-10-07 12:22:00,67.1,38.5,30.21,NW,322,0.0,8.0,35,0.00,,,0.00,Weather View 32 v70,2013-10-07 17:22:00,
2013-10-07 12:27:00,67.1,39.2,30.21,NW,324,5.0,8.0,36,0.00,,,0.00,Weather View 32 v70,2013-10-07 17:27:00,
2013-10-07 12:32:00,67.5,39.5,30.21,NW,312,2.0,8.0,36,0.00,,,0.00,Weather View 32 v70,2013-10-07 17:32:00,
2013-10-07 12:37:00,67.6,39.6,30.21,NW,309,2.0,8.0,36,0.00,,,0.00,Weather View 32 v70,2013-10-07 17:37:00,
2013-10-07 12:42:00,67.9,39.2,30.21,NW,312,2.0,8.0,35,0.00,,,0.00,Weather View 32 v70,2013-10-07 17:42:00,
2013-10-07 12:47:00,67.9,38.4,30.20,NW,325,0.0,8.0,34,0.00,,,0.00,Weather View 32 v70,2013-10-07 17:47:00,
2013-10-07 12:52:00,67.8,38.3,30.20,NW,325,0.0,8.0,34,0.00,,,0.00,Weather View 32 v70,2013-10-07 17:52:00,
2013-10-07 12:57:00,68.1,38.6,30.20,NW,325,6.0,8.0,34,0.00,,,0.00,Weather View 32 v70,2013-10-07 17:57:00,
2013-10-07 13:02:00,68.3,38.8,30.20,NW,324,0.0,8.0,34,0.00,,,0.00,Weather View 32 v70,2013-10-07 18:02:00,
2013-10-07 13:07:00,69.1,39.5,30.19,NW,324,0.0,8.0,34,0.00,,,0.00,Weather View 32 v70,2013-10-07 18:07:00,
2013-10-07 13:12:00,69.8,39.3,30.19,NNW,328,4.0,8.0,33,0.00,,,0.00,Weather View 32 v70,2013-10-07 18:12:00,
2013-10-07 13:17:00,69.4,39.0,30.19,NNW,330,0.0,8.0,33,0.00,,,0.00,Weather View 32 v70,2013-10-07 18:17:00,
2013-10-07 13:22:00,69.3,38.9,30.19,NNW,329,0.0,8.0,33,0.00,,,0.00,Weather View 32 v70,2013-10-07 18:22:00,
2013-10-07 13:27:00,69.5,39.1,30.19,NNW,329,0.0,8.0,33,0.00,,,0.00,Weather View 32 v70,2013-10-07 18:27:00,
2013-10-07 13:32:00,70.7,39.3,30.19,NNW,330,1.0,8.0,32,0.00,,,0.00,Weather View 32 v70,2013-10-07 18:32:00,
2013-10-07 13:37:00,71.8,39.5,30.18,NNW,330,0.0,8.0,31,0.00,,,0.00,Weather View 32 v70,2013-10-07 18:37:00,
2013-10-07 13:42:00,71.5,39.2,30.18,NNW,330,2.0,8.0,31,0.00,,,0.00,Weather View 32 v70,2013-10-07 18:42:00,
2013-10-07 13:47:00,70.7,38.5,30.18,NNW,330,2.0,8.0,31,0.00,,,0.00,Weather View 32 v70,2013-10-07 18:47:00,
2013-10-07 13:52:00,70.4,38.2,30.18,WNW,303,0.0,8.0,31,0.00,,,0.00,Weather View 32 v70,2013-10-07 18:52:00,
2013-10-07 13:57:00,71.3,39.0,30.17,NW,305,3.0,8.0,31,0.00,,,0.00,Weather View 32 v70,2013-10-07 18:57:00,
2013-10-07 14:02:00,72.5,39.2,30.17,NW,307,0.0,8.0,30,0.00,,,0.00,Weather View 32 v70,2013-10-07 19:02:00,
2013-10-07 14:07:00,72.4,39.1,30.17,NW,306,1.0,8.0,30,0.00,,,0.00,Weather View 32 v70,2013-10-07 19:07:00,
2013-10-07 14:12:00,71.9,39.5,30.17,NW,305,3.0,8.0,31,0.00,,,0.00,Weather View 32 v70,2013-10-07 19:12:00,
2013-10-07 14:17:00,72.0,38.8,30.17,NNW,328,5.0,8.0,30,0.00,,,0.00,Weather View 32 v70,2013-10-07 19:17:00,
2013-10-07 14:22:00,72.5,39.2,30.17,NNW,329,0.0,8.0,30,0.00,,,0.00,Weather View 32 v70,2013-10-07 19:22:00,
2013-10-07 14:27:00,73.2,39.0,30.16,NNW,329,0.0,8.0,29,0.00,,,0.00,Weather View 32 v70,2013-10-07 19:27:00,
2013-10-07 14:32:00,73.1,38.9,30.16,NNW,330,0.0,8.0,29,0.00,,,0.00,Weather View 32 v70,2013-10-07 19:32:00,
2013-10-07 14:37:00,72.1,38.0,30.16,NE,43,0.0,8.0,29,0.00,,,0.00,Weather View 32 v70,2013-10-07 19:37:00,
2013-10-07 14:42:00,71.7,38.5,30.16,NE,43,0.0,8.0,30,0.00,,,0.00,Weather View 32 v70,2013-10-07 19:42:00,
2013-10-07 14:47:00,72.3,39.0,30.16,NE,41,0.0,8.0,30,0.00,,,0.00,Weather View 32 v70,2013-10-07 19:47:00,
2013-10-07 14:52:00,73.1,38.9,30.16,NE,41,0.0,8.0,29,0.00,,,0.00,Weather View 32 v70,2013-10-07 19:52:00,
2013-10-07 14:57:00,74.2,38.9,30.16,NE,41,0.0,8.0,28,0.00,,,0.00,Weather View 32 v70,2013-10-07 19:57:00,
2013-10-07 15:02:00,74.8,39.4,30.16,NE,41,0.0,8.0,28,0.00,,,0.00,Weather View 32 v70,2013-10-07 20:02:00,
2013-10-07 15:07:00,75.2,38.8,30.15,WNW,300,4.0,8.0,27,0.00,,,0.00,Weather View 32 v70,2013-10-07 20:07:00,
2013-10-07 15:12:00,74.3,39.0,30.15,WNW,300,0.0,8.0,28,0.00,,,0.00,Weather View 32 v70,2013-10-07 20:12:00,
2013-10-07 15:17:00,74.4,39.1,30.15,WNW,300,0.0,8.0,28,0.00,,,0.00,Weather View 32 v70,2013-10-07 20:17:00,
2013-10-07 15:22:00,74.7,39.3,30.15,WNW,301,1.0,8.0,28,0.00,,,0.00,Weather View 32 v70,2013-10-07 20:22:00,
2013-10-07 15:27:00,74.6,38.3,30.15,WNW,303,0.0,8.0,27,0.00,,,0.00,Weather View 32 v70,2013-10-07 20:27:00,
2013-10-07 15:32:00,74.9,39.5,30.15,NW,305,0.0,8.0,28,0.00,,,0.00,Weather View 32 v70,2013-10-07 20:32:00,
2013-10-07 15:37:00,74.8,39.4,30.15,NW,308,0.0,8.0,28,0.00,,,0.00,Weather View 32 v70,2013-10-07 20:37:00,
2013-10-07 15:42:00,74.9,39.5,30.15,NW,308,0.0,8.0,28,0.00,,,0.00,Weather View 32 v70,2013-10-07 20:42:00,
2013-10-07 15:47:00,75.0,39.6,30.15,NW,308,3.0,8.0,28,0.00,,,0.00,Weather View 32 v70,2013-10-07 20:47:00,
2013-10-07 15:52:00,75.4,39.9,30.15,NW,309,2.0,8.0,28,0.00,,,0.00,Weather View 32 v70,2013-10-07 20:52:00,
2013-10-07 15:57:00,75.8,40.3,30.15,NW,309,0.0,8.0,28,0.00,,,0.00,Weather View 32 v70,2013-10-07 20:57:00,
2013-10-07 16:02:00,75.8,39.3,30.14,West,262,2.0,8.0,27,0.00,,,0.00,Weather View 32 v70,2013-10-07 21:02:00,
2013-10-07 16:07:00,75.2,39.8,30.14,West,262,0.0,8.0,28,0.00,,,0.00,Weather View 32 v70,2013-10-07 21:07:00,
2013-10-07 16:12:00,75.6,40.1,30.14,West,264,0.0,6.0,28,0.00,,,0.00,Weather View 32 v70,2013-10-07 21:12:00,
2013-10-07 16:17:00,76.1,39.6,30.14,West,264,0.0,6.0,27,0.00,,,0.00,Weather View 32 v70,2013-10-07 21:17:00,
2013-10-07 16:22:00,75.3,39.9,30.14,West,267,0.0,6.0,28,0.00,,,0.00,Weather View 32 v70,2013-10-07 21:22:00,
2013-10-07 16:27:00,75.3,39.9,30.13,West,267,0.0,6.0,28,0.00,,,0.00,Weather View 32 v70,2013-10-07 21:27:00,
2013-10-07 16:32:00,75.8,40.3,30.13,West,269,0.0,6.0,28,0.00,,,0.00,Weather View 32 v70,2013-10-07 21:32:00,
2013-10-07 16:37:00,76.3,40.7,30.13,North,11,5.0,7.0,28,0.00,,,0.00,Weather View 32 v70,2013-10-07 21:37:00,
2013-10-07 16:42:00,75.8,40.3,30.13,North,11,0.0,7.0,28,0.00,,,0.00,Weather View 32 v70,2013-10-07 21:42:00,
2013-10-07 16:47:00,75.5,40.0,30.13,North,11,0.0,7.0,28,0.00,,,0.00,Weather View 32 v70,2013-10-07 21:47:00,
2013-10-07 16:52:00,74.8,41.2,30.13,North,11,0.0,7.0,30,0.00,,,0.00,Weather View 32 v70,2013-10-07 21:52:00,
2013-10-07 16:57:00,74.5,40.9,30.13,NNE,13,0.0,7.0,30,0.00,,,0.00,Weather View 32 v70,2013-10-07 21:57:00,
2013-10-07 17:02:00,74.1,40.6,30.13,NNE,19,0.0,7.0,30,0.00,,,0.00,Weather View 32 v70,2013-10-07 22:02:00,
2013-10-07 17:07:00,74.2,40.7,30.13,NNE,19,0.0,7.0,30,0.00,,,0.00,Weather View 32 v70,2013-10-07 22:07:00,
2013-10-07 17:12:00,74.8,41.2,30.13,NNE,19,0.0,7.0,30,0.00,,,0.00,Weather View 32 v70,2013-10-07 22:12:00,
2013-10-07 17:17:00,75.2,41.6,30.13,NNE,19,3.0,7.0,30,0.00,,,0.00,Weather View 32 v70,2013-10-07 22:17:00,
2013-10-07 17:22:00,74.7,42.0,30.13,NNE,23,2.0,7.0,31,0.00,,,0.00,Weather View 32 v70,2013-10-07 22:22:00,
2013-10-07 17:27:00,74.3,41.6,30.13,NNE,23,0.0,7.0,31,0.00,,,0.00,Weather View 32 v70,2013-10-07 22:27:00,
2013-10-07 17:32:00,74.2,41.5,30.13,NNE,23,4.0,7.0,31,0.00,,,0.00,Weather View 32 v70,2013-10-07 22:32:00,
2013-10-07 17:37:00,74.6,41.9,30.13,NNE,23,3.0,7.0,31,0.00,,,0.00,Weather View 32 v70,2013-10-07 22:37:00,
2013-10-07 17:42:00,74.4,41.7,30.13,NNE,23,2.0,6.0,31,0.00,,,0.00,Weather View 32 v70,2013-10-07 22:42:00,
2013-10-07 17:47:00,74.2,41.5,30.12,NNE,23,0.0,6.0,31,0.00,,,0.00,Weather View 32 v70,2013-10-07 22:47:00,
2013-10-07 17:52:00,73.7,41.9,30.13,NNE,23,1.0,6.0,32,0.00,,,0.00,Weather View 32 v70,2013-10-07 22:52:00,
2013-10-07 17:57:00,73.5,41.8,30.13,NNE,23,0.0,6.0,32,0.00,,,0.00,Weather View 32 v70,2013-10-07 22:57:00,
2013-10-07 18:02:00,73.6,41.8,30.12,NNE,23,1.0,6.0,32,0.00,,,0.00,Weather View 32 v70,2013-10-07 23:02:00,
2013-10-07 18:07:00,73.5,42.6,30.12,NNE,23,0.0,6.0,33,0.00,,,0.00,Weather View 32 v70,2013-10-07 23:07:00,
2013-10-07 18:12:00,73.4,42.5,30.13,NNE,23,0.0,6.0,33,0.00,,,0.00,Weather View 32 v70,2013-10-07 23:12:00,
2013-10-07 18:17:00,73.4,42.5,30.13,NNE,23,0.0,6.0,33,0.00,,,0.00,Weather View 32 v70,2013-10-07 23:17:00,
2013-10-07 18:22:00,73.3,42.4,30.13,NNE,23,0.0,6.0,33,0.00,,,0.00,Weather View 32 v70,2013-10-07 23:22:00,
2013-10-07 18:27:00,73.0,42.1,30.13,NNE,23,3.0,6.0,33,0.00,,,0.00,Weather View 32 v70,2013-10-07 23:27:00,
2013-10-07 18:32:00,72.9,42.8,30.13,NNE,23,0.0,6.0,34,0.00,,,0.00,Weather View 32 v70,2013-10-07 23:32:00,
2013-10-07 18:37:00,72.6,42.5,30.12,NNE,23,3.0,6.0,34,0.00,,,0.00,Weather View 32 v70,2013-10-07 23:37:00,
2013-10-07 18:42:00,72.2,43.0,30.12,NNE,23,0.0,5.0,35,0.00,,,0.00,Weather View 32 v70,2013-10-07 23:42:00,
2013-10-07 18:47:00,71.9,42.7,30.12,NNE,23,0.0,5.0,35,0.00,,,0.00,Weather View 32 v70,2013-10-07 23:47:00,
2013-10-07 18:52:00,71.6,43.2,30.12,NNE,24,0.0,5.0,36,0.00,,,0.00,Weather View 32 v70,2013-10-07 23:52:00,
2013-10-07 18:57:00,71.3,43.6,30.12,NNE,23,0.0,5.0,37,0.00,,,0.00,Weather View 32 v70,2013-10-07 23:57:00,
2013-10-07 19:02:00,71.1,43.4,30.13,NNE,23,0.0,4.0,37,0.00,,,0.00,Weather View 32 v70,2013-10-08 00:02:00,
2013-10-07 19:07:00,70.9,43.3,30.13,NNE,24,0.0,4.0,37,0.00,,,0.00,Weather View 32 v70,2013-10-08 00:07:00,
2013-10-07 19:12:00,70.6,43.7,30.13,NNE,23,0.0,4.0,38,0.00,,,0.00,Weather View 32 v70,2013-10-08 00:12:00,
2013-10-07 19:17:00,70.4,44.2,30.13,NNE,23,0.0,4.0,39,0.00,,,0.00,Weather View 32 v70,2013-10-08 00:17:00,
2013-10-07 19:22:00,70.3,44.1,30.13,NNE,23,0.0,4.0,39,0.00,,,0.00,Weather View 32 v70,2013-10-08 00:22:00,
2013-10-07 19:27:00,70.1,43.9,30.13,NNE,23,0.0,4.0,39,0.00,,,0.00,Weather View 32 v70,2013-10-08 00:27:00,
2013-10-07 19:32:00,70.0,44.5,30.13,NNE,24,0.0,3.0,40,0.00,,,0.00,Weather View 32 v70,2013-10-08 00:32:00,
2013-10-07 19:37:00,69.8,44.3,30.13,NNE,24,0.0,3.0,40,0.00,,,0.00,Weather View 32 v70,2013-10-08 00:37:00,
2013-10-07 19:42:00,69.6,44.1,30.13,NNE,23,0.0,3.0,40,0.00,,,0.00,Weather View 32 v70,2013-10-08 00:42:00,
2013-10-07 19:47:00,69.4,44.6,30.13,NNE,23,0.0,0.0,41,0.00,,,0.00,Weather View 32 v70,2013-10-08 00:47:00,
2013-10-07 19:52:00,69.2,45.1,30.13,NNE,23,0.0,0.0,42,0.00,,,0.00,Weather View 32 v70,2013-10-08 00:52:00,
2013-10-07 19:57:00,69.0,45.5,30.13,NNE,23,0.0,0.0,43,0.00,,,0.00,Weather View 32 v70,2013-10-08 00:57:00,
2013-10-07 20:02:00,68.7,45.8,30.13,NNE,24,0.0,0.0,44,0.00,,,0.00,Weather View 32 v70,2013-10-08 01:02:00,
2013-10-07 20:07:00,68.4,45.6,30.14,NNE,23,0.0,0.0,44,0.00,,,0.00,Weather View 32 v70,2013-10-08 01:07:00,
2013-10-07 20:12:00,67.9,46.3,30.14,NNE,23,0.0,0.0,46,0.00,,,0.00,Weather View 32 v70,2013-10-08 01:12:00,
2013-10-07 20:17:00,67.2,46.8,30.14,NNE,23,0.0,0.0,48,0.00,,,0.00,Weather View 32 v70,2013-10-08 01:17:00,
2013-10-07 20:22:00,66.6,47.3,30.14,NNE,23,0.0,0.0,50,0.00,,,0.00,Weather View 32 v70,2013-10-08 01:22:00,
2013-10-07 20:27:00,66.1,47.4,30.14,NNE,23,0.0,0.0,51,0.00,,,0.00,Weather View 32 v70,2013-10-08 01:27:00,
2013-10-07 20:32:00,65.8,47.1,30.14,NNE,23,0.0,0.0,51,0.00,,,0.00,Weather View 32 v70,2013-10-08 01:32:00,
2013-10-07 20:37:00,65.4,47.3,30.14,NNE,23,0.0,0.0,52,0.00,,,0.00,Weather View 32 v70,2013-10-08 01:37:00,
2013-10-07 20:42:00,65.1,48.0,30.14,NNE,23,0.0,0.0,54,0.00,,,0.00,Weather View 32 v70,2013-10-08 01:42:00,
2013-10-07 20:47:00,64.8,48.7,30.14,NNE,23,0.0,0.0,56,0.00,,,0.00,Weather View 32 v70,2013-10-08 01:47:00,
2013-10-07 20:52:00,64.4,48.3,30.15,NNE,23,0.0,0.0,56,0.00,,,0.00,Weather View 32 v70,2013-10-08 01:52:00,
2013-10-07 20:57:00,64.1,47.6,30.15,NNE,23,0.0,0.0,55,0.00,,,0.00,Weather View 32 v70,2013-10-08 01:57:00,
2013-10-07 21:02:00,64.0,47.9,30.15,NNE,23,0.0,0.0,56,0.00,,,0.00,Weather View 32 v70,2013-10-08 02:02:00,
2013-10-07 21:07:00,64.0,48.4,30.15,NNE,23,0.0,0.0,57,0.00,,,0.00,Weather View 32 v70,2013-10-08 02:07:00,
2013-10-07 21:12:00,63.7,47.7,30.15,NNE,23,0.0,0.0,56,0.00,,,0.00,Weather View 32 v70,2013-10-08 02:12:00,
2013-10-07 21:17:00,63.5,48.4,30.15,NNE,24,0.0,0.0,58,0.00,,,0.00,Weather View 32 v70,2013-10-08 02:17:00,
2013-10-07 21:22:00,63.4,48.3,30.15,NNE,23,0.0,0.0,58,0.00,,,0.00,Weather View 32 v70,2013-10-08 02:22:00,
2013-10-07 21:27:00,63.2,48.6,30.15,NNE,23,0.0,0.0,59,0.00,,,0.00,Weather View 32 v70,2013-10-08 02:27:00,
2013-10-07 21:32:00,63.0,48.4,30.15,NNE,24,0.0,0.0,59,0.00,,,0.00,Weather View 32 v70,2013-10-08 02:32:00,
2013-10-07 21:37:00,62.6,48.5,30.15,NNE,23,0.0,0.0,60,0.00,,,0.00,Weather View 32 v70,2013-10-08 02:37:00,
2013-10-07 21:42:00,62.4,48.3,30.15,NNE,23,0.0,0.0,60,0.00,,,0.00,Weather View 32 v70,2013-10-08 02:42:00,
2013-10-07 21:47:00,62.2,48.1,30.15,NNE,23,0.0,0.0,60,0.00,,,0.00,Weather View 32 v70,2013-10-08 02:47:00,
2013-10-07 21:52:00,62.1,48.0,30.15,NNE,23,0.0,0.0,60,0.00,,,0.00,Weather View 32 v70,2013-10-08 02:52:00,
2013-10-07 21:57:00,61.9,47.8,30.15,NNE,23,0.0,0.0,60,0.00,,,0.00,Weather View 32 v70,2013-10-08 02:57:00,
2013-10-07 22:02:00,61.7,48.1,30.15,NNE,23,0.0,0.0,61,0.00,,,0.00,Weather View 32 v70,2013-10-08 03:02:00,
2013-10-07 22:07:00,61.4,48.2,30.15,NNE,23,0.0,0.0,62,0.00,,,0.00,Weather View 32 v70,2013-10-08 03:07:00,
2013-10-07 22:12:00,61.2,48.0,30.15,NNE,23,0.0,0.0,62,0.00,,,0.00,Weather View 32 v70,2013-10-08 03:12:00,
2013-10-07 22:17:00,61.0,48.7,30.15,NNE,23,0.0,0.0,64,0.00,,,0.00,Weather View 32 v70,2013-10-08 03:17:00,
2013-10-07 22:22:00,60.9,49.0,30.15,NNE,24,0.0,0.0,65,0.00,,,0.00,Weather View 32 v70,2013-10-08 03:22:00,
2013-10-07 22:27:00,60.7,48.8,30.15,NNE,23,0.0,0.0,65,0.00,,,0.00,Weather View 32 v70,2013-10-08 03:27:00,
2013-10-07 22:32:00,60.5,48.6,30.15,NNE,23,0.0,0.0,65,0.00,,,0.00,Weather View 32 v70,2013-10-08 03:32:00,
2013-10-07 22:37:00,60.4,48.6,30.15,NNE,23,0.0,0.0,65,0.00,,,0.00,Weather View 32 v70,2013-10-08 03:37:00,
2013-10-07 22:42:00,60.2,48.4,30.15,NNE,23,0.0,0.0,65,0.00,,,0.00,Weather View 32 v70,2013-10-08 03:42:00,
2013-10-07 22:47:00,60.0,48.2,30.15,NNE,23,0.0,0.0,65,0.00,,,0.00,Weather View 32 v70,2013-10-08 03:47:00,
2013-10-07 22:52:00,59.9,48.1,30.15,NNE,23,0.0,0.0,65,0.00,,,0.00,Weather View 32 v70,2013-10-08 03:52:00,
2013-10-07 22:57:00,59.7,48.3,30.15,NNE,23,0.0,0.0,66,0.00,,,0.00,Weather View 32 v70,2013-10-08 03:57:00,
2013-10-07 23:01:00,59.6,48.6,30.15,NNE,23,0.0,0.0,67,0.00,,,0.00,Weather View 32 v70,2013-10-08 04:01:00,
2013-10-07 23:02:00,59.6,48.6,30.15,NNE,23,0.0,0.0,67,0.00,,,0.00,Weather View 32 v70,2013-10-08 04:02:00,
2013-10-07 23:07:00,59.4,48.8,30.15,NNE,23,0.0,0.0,68,0.00,,,0.00,Weather View 32 v70,2013-10-08 04:07:00,
2013-10-07 23:12:00,59.4,48.8,30.15,NNE,23,0.0,0.0,68,0.00,,,0.00,Weather View 32 v70,2013-10-08 04:12:00,
2013-10-07 23:17:00,59.4,48.4,30.15,NNE,23,0.0,0.0,67,0.00,,,0.00,Weather View 32 v70,2013-10-08 04:17:00,
2013-10-07 23:22:00,59.3,48.3,30.15,NNE,24,0.0,0.0,67,0.00,,,0.00,Weather View 32 v70,2013-10-08 04:22:00,
2013-10-07 23:27:00,59.3,47.9,30.15,NNE,23,0.0,0.0,66,0.00,,,0.00,Weather View 32 v70,2013-10-08 04:27:00,
2013-10-07 23:32:00,59.4,47.6,30.15,NNE,23,0.0,0.0,65,0.00,,,0.00,Weather View 32 v70,2013-10-08 04:32:00,
2013-10-07 23:37:00,59.4,48.0,30.15,NNE,23,0.0,0.0,66,0.00,,,0.00,Weather View 32 v70,2013-10-08 04:37:00,
2013-10-07 23:42:00,59.3,47.9,30.15,NNE,23,0.0,0.0,66,0.00,,,0.00,Weather View 32 v70,2013-10-08 04:42:00,
2013-10-07 23:47:00,59.1,48.1,30.15,NNE,23,0.0,0.0,67,0.00,,,0.00,Weather View 32 v70,2013-10-08 04:47:00,
2013-10-07 23:52:00,58.9,47.9,30.15,NNE,23,0.0,0.0,67,0.00,,,0.00,Weather View 32 v70,2013-10-08 04:52:00,
2013-10-07 23:57:00,58.9,47.9,30.15,NNE,23,0.0,0.0,67,0.00,,,0.00,Weather View 32 v70,2013-10-08 04:57:00,